[[{"header":{"parameterUnit":"m.s-1","parameterCategory":2,"la1":30.2991,"la2":30.254,"lo1":-89.0895,"lo2":-89.0444,"dy":0.0017,"dx":0.0017,"nx":28,"ny":28,"refTime":"2025-01-01T03:00:00:Z","depth":"0","parameterNumber":2,"parameterNumberName":"U-component_of_CURRENTS"},"data":[0,0,0,0,0,0,0,0,0,0,0,0,0,0,0,0,0,0,0,0,0,0,0,0,0,0,0,0,0,0,0,0,0,0,0,0,0,0,0,0,0,0,0,0,0,0,0,0,0,0,0,0,0,0,0,0,0,0,-0.3497,-0.3498,0,-0.3531,-0.3532,-0.3532,-0.3528,-0.3528,-0.3528,-0.3527,-0.3478,-0.3477,-0.3476,0,0,0,0,0,0,0,0,0,0,0,0,0,-0.3514,-0.3513,-0.3497,-0.3498,-0.3499,-0.3531,-0.3532,-0.3532,-0.3528,-0.3528,-0.3528,-0.3527,-0.3479,-0.3478,-0.3476,0,0,0,0,0,0,0,0,0,0,0,0,0,-0.3521,-0.3513,-0.3497,-0.3503,-0.3504,-0.3531,-0.3532,-0.3532,-0.3528,-0.3528,-0.3527,-0.3527,-0.3479,-0.3478,-0.3476,-0.3476,0,0,-0.3472,-0.3471,0,0,0,0,0,0,0,0,-0.352,-0.352,-0.3501,-0.3502,-0.3504,-0.3527,-0.352,-0.351,-0.3528,-0.3516,-0.3527,-0.3527,-0.3489,-0.3487,-0.3492,-0.3474,-0.3472,-0.3471,-0.347,-0.347,-0.3469,0,0,0,0,0,0,0,-0.352,-0.3519,-0.3508,-0.3502,-0.3503,-0.3533,-0.3532,-0.3519,-0.3501,-0.3517,-0.3518,-0.3526,-0.3489,-0.3493,-0.349,-0.3471,-0.3471,-0.347,-0.3469,-0.3469,-0.3437,-0.3438,0,0,0,0,0,0,-0.3516,-0.3518,-0.3507,-0.3509,-0.3514,-0.3533,-0.3532,-0.3518,-0.3503,-0.3502,-0.3526,-0.3526,-0.3496,-0.3492,-0.3488,-0.3489,-0.347,-0.3468,-0.3468,-0.3437,-0.3437,-0.3438,0,0,0,0,0,0,-0.3516,-0.3514,-0.3506,-0.3518,-0.3519,-0.3532,-0.3517,-0.3519,-0.353,-0.3511,-0.3508,-0.3536,-0.3496,-0.3491,-0.3481,-0.3487,-0.3468,-0.3466,-0.3437,-0.3437,-0.3438,-0.3488,0,0,0,0,0,0,-0.3516,-0.3513,-0.3501,-0.3517,-0.3519,-0.3534,-0.3518,-0.352,-0.3536,-0.3536,-0.3518,-0.3513,-0.3495,-0.3484,-0.348,-0.3484,-0.3465,-0.3437,-0.3437,-0.3437,-0.3486,-0.349,-0.3493,0,0,0,0,0,-0.3516,-0.3519,-0.3499,-0.3498,-0.35,-0.3535,-0.3539,-0.3546,-0.3537,-0.3551,-0.3532,-0.3514,-0.3482,-0.3483,-0.3478,-0.3482,-0.3437,-0.3437,-0.3437,-0.3485,-0.3489,-0.3493,0,0,0,0,0,0,-0.3516,-0.3519,-0.3498,-0.3496,-0.3513,-0.3536,-0.3553,-0.3552,-0.3551,-0.3542,-0.352,-0.3514,-0.3511,-0.3487,-0.3489,-0.3472,-0.3454,-0.3454,-0.3492,-0.3496,-0.3499,-0.3479,-0.3464,0,0,0,0,0,-0.3507,-0.3502,-0.3516,-0.3508,-0.3524,-0.3535,-0.3548,-0.355,-0.3555,-0.3555,-0.3543,-0.3521,-0.3508,-0.3495,-0.3484,-0.3473,-0.3424,-0.347,-0.3474,-0.3477,-0.3456,-0.3383,-0.3378,-0.3438,-0.3438,-0.3438,0,0,-0.3499,-0.3502,-0.3495,-0.3507,-0.352,-0.3545,-0.3542,-0.3567,-0.3575,-0.3547,-0.3553,-0.354,-0.3511,-0.3505,-0.3499,-0.3483,-0.3438,-0.3477,-0.348,-0.3457,-0.3383,-0.3376,-0.3371,-0.3438,-0.3438,-0.3438,0,0,-0.3499,-0.3491,-0.3494,-0.3516,-0.354,-0.3555,-0.3565,-0.359,-0.3593,-0.3601,-0.3577,-0.3555,-0.3554,-0.3518,-0.3502,-0.3511,-0.3467,-0.3522,-0.3512,-0.3443,-0.3437,-0.3431,-0.3382,-0.3371,-0.3513,-0.3513,-0.3513,0,-0.3478,-0.3484,-0.3504,-0.3525,-0.3541,-0.3562,-0.358,-0.3596,-0.3608,-0.3594,-0.3609,-0.3566,-0.3551,-0.3506,-0.3518,-0.3516,-0.348,-0.3504,-0.3446,-0.3439,-0.3432,-0.3383,-0.337,-0.3516,-0.3515,-0.3515,-0.3515,0,-0.3491,-0.3496,-0.3514,-0.3533,-0.3559,-0.3582,-0.3612,-0.3623,-0.3632,-0.3628,-0.3605,-0.3583,-0.354,-0.3548,-0.3542,-0.3486,-0.348,-0.3469,-0.3436,-0.3429,-0.3378,-0.3364,-0.3519,-0.3518,-0.3518,-0.3517,0,0,-0.3413,-0.35,-0.3496,-0.3497,-0.3562,-0.3567,-0.3607,-0.3617,-0.3592,-0.3616,-0.3573,-0.3572,-0.3543,-0.3521,-0.3502,-0.3453,-0.3393,-0.3448,-0.3443,-0.3399,-0.3255,-0.3174,-0.3151,-0.3379,-0.3376,-0.3374,-0.3248,0,-0.3399,-0.3433,-0.3489,-0.35,-0.3517,-0.3562,-0.358,-0.3588,-0.3595,-0.3563,-0.3542,-0.3503,-0.3539,-0.3503,-0.3467,-0.3413,-0.3355,-0.3429,-0.3267,-0.3262,-0.319,-0.313,-0.3005,-0.2874,-0.3234,-0.3231,-0.323,0,-0.3369,-0.3398,-0.3426,-0.3453,-0.3462,-0.3479,-0.3474,-0.3489,-0.3479,-0.3476,-0.345,-0.3441,-0.339,-0.3407,-0.331,-0.3362,-0.3304,-0.3266,-0.326,-0.3146,-0.3152,-0.2934,-0.2834,-0.2828,-0.3207,-0.3209,-0.321,0,-0.3265,-0.3327,-0.3341,-0.3359,-0.3419,-0.342,-0.3436,-0.3447,-0.3427,-0.34,-0.3372,-0.3339,-0.3294,-0.3242,-0.3211,-0.3247,-0.309,-0.3118,-0.2984,-0.298,-0.2816,-0.28,-0.268,-0.3001,-0.3002,-0.3002,-0.3002,0,-0.3204,-0.3191,-0.329,-0.3286,-0.3251,-0.3333,-0.3283,-0.3293,-0.3298,-0.3241,-0.3298,-0.3237,-0.325,-0.3191,-0.3163,-0.303,-0.3045,-0.295,-0.2921,-0.2834,-0.2822,-0.2764,-0.2804,-0.2997,-0.2998,-0.2999,-0.3,0,-0.3051,-0.314,-0.3122,-0.3189,-0.3199,-0.3154,-0.3176,-0.3136,-0.3181,-0.3109,-0.31,-0.3133,-0.3066,-0.3067,-0.2967,-0.2936,-0.2772,-0.2774,-0.2689,-0.265,-0.2522,-0.257,-0.2387,-0.2316,-0.2593,-0.259,-0.2587,0,-0.297,-0.2964,-0.3003,-0.2981,-0.3003,-0.2982,-0.2963,-0.3032,-0.301,-0.3027,-0.2972,-0.2944,-0.2871,-0.2741,-0.2678,-0.2578,-0.2612,-0.2414,-0.244,-0.2459,-0.2492,-0.2539,-0.2497,-0.226,-0.2255,-0.2251,-0.2247,0,-0.2777,-0.2801,-0.2785,-0.2765,-0.2745,-0.2721,-0.2723,-0.2703,-0.2779,-0.2761,-0.2722,-0.268,-0.2586,-0.2448,-0.2361,-0.2291,-0.2355,-0.2323,-0.2339,-0.2199,-0.2239,-0.2175,-0.2439,-0.221,-0.2214,-0.2217,-0.2219,-0.222,-0.2587,-0.2529,-0.2535,-0.2491,-0.2482,-0.2458,-0.2382,-0.2434,-0.2397,-0.2364,-0.2442,-0.2356,-0.2305,-0.2157,-0.2083,-0.1959,-0.2046,-0.1922,-0.1974,-0.2018,-0.1947,-0.2139,-0.1886,-0.1888,-0.1889,-0.189,-0.1892,0,-0.2337,-0.2312,-0.2266,-0.2217,-0.2149,-0.2227,-0.2204,-0.2131,-0.2056,-0.2102,-0.2065,-0.203,-0.1891,-0.1869,-0.1762,-0.1666,-0.1636,-0.164,-0.1685,-0.1654,-0.1793,-0.1777,-0.1489,-0.1489,-0.1489,-0.1489,-0.1489,-0.1489,-0.2194,-0.2074,-0.2078,-0.1907,-0.1887,-0.1745,-0.1705,-0.1653,-0.1655,-0.1598,-0.162,-0.1677,-0.1693,-0.18,-0.1665,-0.1564,-0.1549,-0.1473,-0.1531,-0.1669,-0.1701,-0.1732,-0.1724,-0.143,-0.143,-0.1315,-0.1315,-0.1314]},{"header":{"parameterUnit":"m.s-1","parameterCategory":2,"la1":30.2991,"la2":30.254,"lo1":-89.0895,"lo2":-89.0444,"dy":0.0017,"dx":0.0017,"nx":28,"ny":28,"refTime":"2025-01-01T03:00:00:Z","depth":"0","parameterNumber":3,"parameterNumberName":"V-component_of_CURRENTS"},"data":[0,0,0,0,0,0,0,0,0,0,0,0,0,0,0,0,0,0,0,0,0,0,0,0,0,0,0,0,0,0,0,0,0,0,0,0,0,0,0,0,0,0,0,0,0,0,0,0,0,0,0,0,0,0,0,0,0,0,-0.0836,-0.0834,0,-0.0697,-0.0695,-0.0693,-0.0608,-0.0607,-0.0607,-0.0607,-0.0391,-0.0385,-0.038,0,0,0,0,0,0,0,0,0,0,0,0,0,-0.1037,-0.1034,-0.0836,-0.0834,-0.0832,-0.0697,-0.0695,-0.0693,-0.0608,-0.0607,-0.0607,-0.0607,-0.0392,-0.0386,-0.038,0,0,0,0,0,0,0,0,0,0,0,0,0,-0.0928,-0.1032,-0.0836,-0.0774,-0.0768,-0.0697,-0.0695,-0.0692,-0.0608,-0.0607,-0.0607,-0.0606,-0.0395,-0.0387,-0.0379,-0.0339,0,0,-0.0354,-0.035,0,0,0,0,0,0,0,0,-0.0934,-0.092,-0.0785,-0.0779,-0.0771,-0.067,-0.0687,-0.0571,-0.0608,-0.0667,-0.0607,-0.0606,-0.0478,-0.0463,-0.0438,-0.0329,-0.0319,-0.0353,-0.0348,-0.0345,-0.0342,0,0,0,0,0,0,0,-0.0942,-0.0926,-0.078,-0.0784,-0.0775,-0.0757,-0.0741,-0.0664,-0.0575,-0.0662,-0.0656,-0.0642,-0.0473,-0.0446,-0.0432,-0.0316,-0.0353,-0.0346,-0.0341,-0.0338,-0.0147,-0.0146,0,0,0,0,0,0,-0.0961,-0.0933,-0.0784,-0.0775,-0.0854,-0.0754,-0.0736,-0.0702,-0.0577,-0.0559,-0.0643,-0.0639,-0.046,-0.0441,-0.0424,-0.0358,-0.0345,-0.0337,-0.0332,-0.0147,-0.0147,-0.0146,0,0,0,0,0,0,-0.0965,-0.0948,-0.079,-0.0854,-0.0832,-0.0751,-0.0714,-0.07,-0.0673,-0.0564,-0.0543,-0.0632,-0.0459,-0.0435,-0.0363,-0.035,-0.0333,-0.0326,-0.0147,-0.0147,-0.0146,-0.0234,0,0,0,0,0,0,-0.0971,-0.095,-0.0938,-0.0854,-0.0829,-0.0757,-0.0714,-0.0697,-0.0665,-0.0659,-0.0547,-0.0526,-0.0456,-0.0376,-0.0355,-0.0338,-0.032,-0.0147,-0.0147,-0.0147,-0.0232,-0.0237,-0.0242,0,0,0,0,0,-0.0978,-0.0969,-0.0938,-0.092,-0.0812,-0.0758,-0.0744,-0.0685,-0.0666,-0.0658,-0.0585,-0.053,-0.0358,-0.0369,-0.0345,-0.0325,-0.0147,-0.0147,-0.0147,-0.023,-0.0236,-0.0242,0,0,0,0,0,0,-0.1042,-0.0957,-0.0921,-0.0882,-0.0828,-0.0744,-0.0736,-0.0694,-0.0631,-0.0624,-0.0526,-0.05,-0.0434,-0.0371,-0.0385,-0.027,-0.0244,-0.0238,-0.0315,-0.032,-0.0325,-0.0339,-0.0313,0,0,0,0,0,-0.1053,-0.1027,-0.0941,-0.0912,-0.0892,-0.0816,-0.0789,-0.0746,-0.0678,-0.0651,-0.0575,-0.0491,-0.0412,-0.0363,-0.0291,-0.0225,-0.0163,-0.0196,-0.0202,-0.0206,-0.0201,-0.01,-0.0096,-0.0145,-0.0145,-0.0145,0,0,-0.1071,-0.102,-0.1005,-0.0926,-0.0882,-0.0855,-0.0799,-0.0763,-0.0733,-0.0635,-0.0583,-0.051,-0.0402,-0.0333,-0.0296,-0.0276,-0.0165,-0.0206,-0.0211,-0.0202,-0.0099,-0.0095,-0.009,-0.0145,-0.0145,-0.0145,0,0,-0.1105,-0.105,-0.1046,-0.1005,-0.0943,-0.0894,-0.089,-0.081,-0.0769,-0.071,-0.0631,-0.0552,-0.0444,-0.0354,-0.0296,-0.0282,-0.0203,-0.0265,-0.0285,-0.0189,-0.0184,-0.0179,-0.012,-0.0109,-0.0257,-0.0257,-0.0258,0,-0.1128,-0.11,-0.1039,-0.1024,-0.0997,-0.0919,-0.0908,-0.0855,-0.0762,-0.0718,-0.0709,-0.0531,-0.0448,-0.0331,-0.033,-0.0291,-0.0241,-0.0274,-0.0196,-0.0189,-0.0182,-0.0123,-0.0109,-0.0262,-0.0261,-0.0261,-0.026,0,-0.1158,-0.1134,-0.1134,-0.1084,-0.105,-0.103,-0.0949,-0.0909,-0.0858,-0.079,-0.0687,-0.0577,-0.0461,-0.0428,-0.0373,-0.0275,-0.026,-0.0225,-0.0186,-0.0183,-0.012,-0.0105,-0.0268,-0.0266,-0.0265,-0.0264,0,0,-0.1195,-0.1162,-0.1157,-0.1145,-0.1078,-0.1048,-0.1004,-0.0924,-0.0873,-0.0794,-0.0716,-0.059,-0.0523,-0.0453,-0.0365,-0.0284,-0.0203,-0.0244,-0.0237,-0.0195,-0.0018,0.0015,0.0035,-0.0158,-0.0155,-0.0153,-0.0004,0,-0.1231,-0.1234,-0.1195,-0.1187,-0.1181,-0.1099,-0.1058,-0.0973,-0.0891,-0.08,-0.0675,-0.0576,-0.0532,-0.047,-0.0383,-0.0239,-0.0162,-0.0248,-0.0017,-0.0011,0.0012,0.0056,0.0105,0.0245,0.0012,0.0015,0.0017,0,-0.1264,-0.1261,-0.1275,-0.1227,-0.1213,-0.1196,-0.11,-0.1046,-0.0902,-0.0833,-0.0716,-0.0613,-0.0468,-0.044,-0.0209,-0.027,-0.0155,-0.0059,-0.005,0.0027,0.0053,0.0213,0.0283,0.0458,0.0042,0.004,0.0038,0,-0.1323,-0.1304,-0.1321,-0.1308,-0.1251,-0.1231,-0.1187,-0.1063,-0.0995,-0.0847,-0.0781,-0.0606,-0.0503,-0.0343,-0.0151,-0.0171,0.0089,0.0098,0.0233,0.0235,0.0349,0.0357,0.0615,0.026,0.026,0.0259,0.0259,0,-0.137,-0.1371,-0.1357,-0.1363,-0.1349,-0.1292,-0.1238,-0.1158,-0.1037,-0.0948,-0.0804,-0.0693,-0.0473,-0.0297,-0.0144,0.0095,0.0106,0.0244,0.0292,0.0316,0.0319,0.0533,0.058,0.0265,0.0264,0.0263,0.0262,0,-0.1415,-0.1417,-0.1423,-0.1394,-0.1381,-0.1368,-0.1283,-0.1233,-0.1123,-0.1002,-0.0958,-0.0738,-0.0508,-0.0293,-0.001,0.0117,0.0445,0.0411,0.0402,0.0446,0.0713,0.0751,0.1033,0.1129,0.0586,0.0588,0.0589,0,-0.1434,-0.1454,-0.1446,-0.1451,-0.1441,-0.1413,-0.1384,-0.1283,-0.1221,-0.1019,-0.0962,-0.0723,-0.0524,-0.012,0.0153,0.0438,0.0557,0.0641,0.0624,0.0758,0.0836,0.0854,0.0914,0.0732,0.0735,0.0737,0.0739,0,-0.145,-0.1456,-0.146,-0.1482,-0.148,-0.1454,-0.1409,-0.1373,-0.1241,-0.1124,-0.093,-0.0762,-0.0369,-0.0005,0.0352,0.0525,0.0767,0.0693,0.0871,0.1009,0.1013,0.1116,0.0568,0.0759,0.0757,0.0755,0.0754,0.0753,-0.1438,-0.1454,-0.1474,-0.1486,-0.1493,-0.1485,-0.1446,-0.138,-0.1273,-0.1067,-0.0919,-0.0609,-0.0126,0.0396,0.0588,0.1012,0.0945,0.1142,0.1184,0.1196,0.1278,0.0745,0.0961,0.096,0.0959,0.0959,0.0958,0,-0.1411,-0.1442,-0.1466,-0.1489,-0.1503,-0.1498,-0.1443,-0.1374,-0.1242,-0.1029,-0.0813,-0.0214,0.0274,0.0714,0.1271,0.1497,0.1538,0.161,0.1674,0.1718,0.1307,0.1304,0.1559,0.1559,0.1559,0.1558,0.1558,0.1558,-0.14,-0.1424,-0.1453,-0.1481,-0.15,-0.1476,-0.1437,-0.1311,-0.1136,-0.0754,-0.0391,-0.0119,0.0512,0.1392,0.1917,0.1964,0.2148,0.2125,0.2212,0.1948,0.1907,0.1869,0.1884,0.2256,0.2256,0.2627,0.2631,0.2634]}],[{"header":{"parameterUnit":"m.s-1","parameterCategory":2,"la1":30.2991,"la2":30.254,"lo1":-89.0895,"lo2":-89.0444,"dy":0.0017,"dx":0.0017,"nx":28,"ny":28,"refTime":"2025-01-01T03:00:00:Z","depth":"2","parameterNumber":2,"parameterNumberName":"U-component_of_CURRENTS"},"data":[0,0,0,0,0,0,0,0,0,0,0,0,0,0,0,0,0,0,0,0,0,0,0,0,0,0,0,0,0,0,0,0,0,0,0,0,0,0,0,0,0,0,0,0,0,0,0,0,0,0,0,0,0,0,0,0,0,0,-0.2993,-0.2993,0,-0.2989,-0.2989,-0.2989,-0.3015,-0.3016,-0.3017,-0.3018,-0.3033,-0.3032,-0.3032,0,0,0,0,0,0,0,0,0,0,0,0,0,-0.2835,-0.2838,-0.2993,-0.2993,-0.2993,-0.2989,-0.2989,-0.2989,-0.3014,-0.3016,-0.3017,-0.3018,-0.3033,-0.3032,-0.3032,0,0,0,0,0,0,0,0,0,0,0,0,0,-0.2872,-0.284,-0.2993,-0.3008,-0.301,-0.2989,-0.2989,-0.2989,-0.3014,-0.3016,-0.3017,-0.3019,-0.3033,-0.3032,-0.3032,-0.2996,0,0,-0.3029,-0.3029,0,0,0,0,0,0,0,0,-0.287,-0.2877,-0.3006,-0.3007,-0.3009,-0.3007,-0.2939,-0.2993,-0.3014,-0.3009,-0.3018,-0.3019,-0.3027,-0.3027,-0.3018,-0.2997,-0.2998,-0.3029,-0.3029,-0.3028,-0.3028,0,0,0,0,0,0,0,-0.2868,-0.2877,-0.2988,-0.3006,-0.3008,-0.2951,-0.2959,-0.2948,-0.3007,-0.301,-0.3012,-0.3016,-0.3028,-0.3018,-0.3018,-0.2998,-0.3029,-0.3028,-0.3028,-0.3028,-0.3047,-0.3048,0,0,0,0,0,0,-0.2883,-0.2876,-0.2988,-0.2988,-0.2945,-0.2954,-0.2963,-0.3003,-0.3007,-0.301,-0.3015,-0.3018,-0.3019,-0.3019,-0.3019,-0.3066,-0.3028,-0.3028,-0.3027,-0.3046,-0.3047,-0.3048,0,0,0,0,0,0,-0.2881,-0.2895,-0.2989,-0.2931,-0.294,-0.2957,-0.3,-0.3002,-0.3003,-0.3012,-0.3015,-0.3016,-0.302,-0.302,-0.3047,-0.3064,-0.3027,-0.3026,-0.3045,-0.3046,-0.3048,-0.3104,0,0,0,0,0,0,-0.2877,-0.2895,-0.2916,-0.2934,-0.2944,-0.3,-0.2999,-0.3001,-0.3004,-0.3008,-0.3013,-0.3015,-0.3021,-0.3048,-0.3046,-0.3062,-0.3026,-0.3044,-0.3046,-0.3047,-0.3101,-0.3107,-0.3113,0,0,0,0,0,-0.2872,-0.2903,-0.2918,-0.293,-0.2979,-0.3001,-0.3001,-0.3012,-0.3003,-0.3014,-0.3029,-0.3016,-0.3058,-0.3048,-0.3045,-0.3062,-0.3043,-0.3045,-0.3047,-0.3098,-0.3106,-0.3112,0,0,0,0,0,0,-0.2872,-0.2909,-0.2926,-0.2977,-0.2997,-0.3007,-0.3005,-0.3009,-0.3022,-0.3031,-0.3027,-0.3032,-0.3064,-0.305,-0.3039,-0.3074,-0.3047,-0.3049,-0.3087,-0.3094,-0.31,-0.3096,-0.3025,0,0,0,0,0,-0.2876,-0.2896,-0.2936,-0.2975,-0.2981,-0.2988,-0.299,-0.3013,-0.3029,-0.3036,-0.3048,-0.3057,-0.3065,-0.3072,-0.3084,-0.3092,-0.305,-0.3101,-0.3107,-0.3112,-0.3108,-0.3056,-0.3056,-0.3056,-0.3056,-0.3056,0,0,-0.2868,-0.2909,-0.2909,-0.2971,-0.2976,-0.3005,-0.2993,-0.3018,-0.3047,-0.3034,-0.3073,-0.308,-0.3074,-0.3105,-0.3115,-0.3098,-0.3093,-0.3115,-0.3119,-0.3112,-0.3058,-0.3058,-0.3057,-0.3057,-0.3057,-0.3057,0,0,-0.2877,-0.2917,-0.2928,-0.2956,-0.2997,-0.3014,-0.3024,-0.3055,-0.307,-0.311,-0.311,-0.313,-0.3144,-0.315,-0.3147,-0.3182,-0.3129,-0.3186,-0.3207,-0.3158,-0.3157,-0.3155,-0.3109,-0.3103,-0.3184,-0.3184,-0.3184,0,-0.2874,-0.2921,-0.2934,-0.2974,-0.2995,-0.3021,-0.305,-0.3069,-0.3115,-0.3123,-0.314,-0.3157,-0.3164,-0.3167,-0.3199,-0.3195,-0.3155,-0.3182,-0.3163,-0.3161,-0.3159,-0.3111,-0.3104,-0.3187,-0.3187,-0.3186,-0.3186,0,-0.2889,-0.2936,-0.2947,-0.3008,-0.3033,-0.3067,-0.3108,-0.3141,-0.3164,-0.3182,-0.3207,-0.3218,-0.3221,-0.3233,-0.3233,-0.3221,-0.3196,-0.318,-0.3142,-0.3162,-0.3111,-0.3102,-0.3191,-0.319,-0.3189,-0.3189,0,0,-0.2864,-0.2938,-0.2947,-0.2972,-0.3059,-0.3076,-0.3134,-0.3174,-0.3182,-0.3237,-0.323,-0.3274,-0.3268,-0.3264,-0.3256,-0.3229,-0.3196,-0.3205,-0.3201,-0.3153,-0.3082,-0.2994,-0.2975,-0.317,-0.3169,-0.3168,-0.3056,0,-0.2873,-0.2937,-0.2983,-0.3035,-0.3058,-0.3116,-0.3152,-0.3199,-0.323,-0.3239,-0.3246,-0.3246,-0.3278,-0.3269,-0.3255,-0.321,-0.3174,-0.3228,-0.3075,-0.307,-0.2984,-0.2962,-0.2738,-0.2613,-0.3047,-0.3045,-0.3044,0,-0.2869,-0.2918,-0.2964,-0.3032,-0.3044,-0.3089,-0.3135,-0.3173,-0.3206,-0.322,-0.3236,-0.3236,-0.3229,-0.3231,-0.3171,-0.3201,-0.3149,-0.3111,-0.3105,-0.2993,-0.2965,-0.2662,-0.258,-0.3029,-0.303,-0.3031,-0.3032,0,-0.2812,-0.2899,-0.293,-0.2958,-0.3041,-0.3071,-0.3115,-0.3167,-0.317,-0.3193,-0.3185,-0.3193,-0.3167,-0.3129,-0.3097,-0.312,-0.2998,-0.3009,-0.2876,-0.287,-0.2632,-0.2607,-0.2932,-0.2932,-0.2932,-0.2933,-0.2933,0,-0.2798,-0.2817,-0.2902,-0.2922,-0.2936,-0.3021,-0.3033,-0.3078,-0.3111,-0.3086,-0.3155,-0.3116,-0.3137,-0.3088,-0.3062,-0.294,-0.2966,-0.2864,-0.2825,-0.2648,-0.2626,-0.2953,-0.2957,-0.2929,-0.2929,-0.293,-0.2931,0,-0.2711,-0.2775,-0.2798,-0.2887,-0.2907,-0.291,-0.2971,-0.2962,-0.3028,-0.2993,-0.2993,-0.3035,-0.2977,-0.2979,-0.2897,-0.2865,-0.2774,-0.2717,-0.2518,-0.2459,-0.269,-0.2698,-0.2552,-0.2548,-0.2544,-0.2541,-0.2539,0,-0.2666,-0.2675,-0.2741,-0.273,-0.2768,-0.2792,-0.2793,-0.2889,-0.2882,-0.292,-0.2877,-0.2859,-0.2792,-0.2678,-0.2602,-0.2505,-0.2632,-0.2266,-0.2273,-0.2668,-0.2646,-0.2661,-0.2674,-0.1982,-0.1975,-0.197,-0.1965,0,-0.2555,-0.2578,-0.2584,-0.2582,-0.2583,-0.2585,-0.2615,-0.2608,-0.2689,-0.2682,-0.2647,-0.2607,-0.2506,-0.231,-0.2222,-0.215,-0.2276,-0.2148,-0.2559,-0.2132,-0.2126,-0.2108,-0.2139,-0.1915,-0.192,-0.1924,-0.1926,-0.1928,-0.2429,-0.2395,-0.2399,-0.2379,-0.238,-0.2361,-0.2311,-0.2353,-0.2327,-0.2277,-0.2357,-0.222,-0.219,-0.1921,-0.1816,-0.175,-0.1918,-0.1851,-0.187,-0.1894,-0.1867,-0.1856,-0.1589,-0.1592,-0.1595,-0.1597,-0.1599,0,-0.224,-0.2216,-0.2194,-0.2154,-0.2092,-0.2168,-0.2151,-0.2069,-0.1986,-0.1978,-0.1921,-0.1689,-0.1537,-0.1528,-0.1327,-0.1303,-0.1306,-0.1269,-0.127,-0.1318,-0.1362,-0.1311,-0.0884,-0.0882,-0.0881,-0.0879,0,0,-0.212,-0.2019,-0.202,-0.1863,-0.1847,-0.171,-0.167,-0.1597,-0.1553,-0.1429,-0.1355,-0.1417,-0.1448,-0.1161,-0.1098,-0.0955,-0.1131,-0.0903,-0.1468,-0.1514,-0.1556,-0.1679,-0.1652,0,0,0,0,0]},{"header":{"parameterUnit":"m.s-1","parameterCategory":2,"la1":30.2991,"la2":30.254,"lo1":-89.0895,"lo2":-89.0444,"dy":0.0017,"dx":0.0017,"nx":28,"ny":28,"refTime":"2025-01-01T03:00:00:Z","depth":"2","parameterNumber":3,"parameterNumberName":"V-component_of_CURRENTS"},"data":[0,0,0,0,0,0,0,0,0,0,0,0,0,0,0,0,0,0,0,0,0,0,0,0,0,0,0,0,0,0,0,0,0,0,0,0,0,0,0,0,0,0,0,0,0,0,0,0,0,0,0,0,0,0,0,0,0,0,-0.0432,-0.043,0,-0.0295,-0.0293,-0.0292,-0.0226,-0.0226,-0.0227,-0.0227,-0.0066,-0.0061,-0.0057,0,0,0,0,0,0,0,0,0,0,0,0,0,-0.0454,-0.0454,-0.0432,-0.043,-0.0429,-0.0295,-0.0293,-0.0291,-0.0226,-0.0226,-0.0227,-0.0227,-0.0067,-0.0062,-0.0057,0,0,0,0,0,0,0,0,0,0,0,0,0,-0.0392,-0.0455,-0.0432,-0.0382,-0.0376,-0.0296,-0.0293,-0.0291,-0.0226,-0.0226,-0.0227,-0.0227,-0.0069,-0.0062,-0.0056,-0.0006,0,0,-0.0035,-0.0032,0,0,0,0,0,0,0,0,-0.0395,-0.0391,-0.0391,-0.0385,-0.0379,-0.028,-0.0242,-0.0195,-0.0226,-0.0281,-0.0227,-0.0227,-0.0136,-0.0124,-0.0095,0.0001,0.0008,-0.0034,-0.003,-0.0027,-0.0025,0,0,0,0,0,0,0,-0.04,-0.0395,-0.0375,-0.0389,-0.0382,-0.0303,-0.0297,-0.0232,-0.0206,-0.0276,-0.0271,-0.0259,-0.0133,-0.0101,-0.009,0.0011,-0.0035,-0.0029,-0.0024,-0.0022,0.0124,0.0124,0,0,0,0,0,0,-0.0431,-0.0401,-0.038,-0.0371,-0.0391,-0.0304,-0.0296,-0.0309,-0.0207,-0.0192,-0.0259,-0.0257,-0.0113,-0.0098,-0.0084,-0.0053,-0.0027,-0.0021,-0.0017,0.0124,0.0124,0.0124,0,0,0,0,0,0,-0.0432,-0.0431,-0.0385,-0.0382,-0.0372,-0.0305,-0.0319,-0.0307,-0.0278,-0.0195,-0.018,-0.0245,-0.0112,-0.0094,-0.0045,-0.0045,-0.0018,-0.0012,0.0124,0.0124,0.0124,0.0031,0,0,0,0,0,0,-0.0434,-0.0433,-0.045,-0.0386,-0.0373,-0.0355,-0.0319,-0.0304,-0.0271,-0.0267,-0.0177,-0.0162,-0.0111,-0.0056,-0.0038,-0.0035,-0.0007,0.0125,0.0124,0.0124,0.0035,0.0028,0.0022,0,0,0,0,0,-0.0436,-0.0458,-0.0452,-0.0449,-0.0401,-0.0356,-0.0342,-0.0291,-0.027,-0.0265,-0.021,-0.0165,-0.0046,-0.005,-0.003,-0.0025,0.0125,0.0124,0.0124,0.0037,0.0029,0.0022,0,0,0,0,0,0,-0.0492,-0.0452,-0.0444,-0.046,-0.0421,-0.0346,-0.033,-0.0296,-0.0245,-0.0245,-0.0164,-0.0145,-0.0105,-0.0051,-0.0058,0.0015,0.0047,0.005,-0.0026,-0.0033,-0.0039,-0.0056,-0.0001,0,0,0,0,0,-0.0511,-0.0512,-0.0466,-0.0481,-0.0462,-0.0397,-0.037,-0.0344,-0.029,-0.0268,-0.0211,-0.0147,-0.0087,-0.0053,-0.0,0.0048,0.0105,0.0064,0.0057,0.0052,0.0052,0.0136,0.0138,0.0122,0.0122,0.0122,0,0,-0.0528,-0.0517,-0.0512,-0.0491,-0.0451,-0.0436,-0.0381,-0.0356,-0.0342,-0.0258,-0.0225,-0.0169,-0.0082,-0.004,-0.0016,0.0005,0.0083,0.0051,0.0046,0.0049,0.0136,0.0138,0.0139,0.0122,0.0122,0.0122,0,0,-0.0568,-0.0562,-0.057,-0.0545,-0.0509,-0.0469,-0.0468,-0.0408,-0.0378,-0.0341,-0.0279,-0.0227,-0.014,-0.0078,-0.0032,-0.0035,0.0041,-0.002,-0.0054,0.0027,0.003,0.0032,0.0088,0.0097,-0.0016,-0.0016,-0.0016,0,-0.0601,-0.0613,-0.0564,-0.0571,-0.0555,-0.0491,-0.0496,-0.0451,-0.039,-0.0362,-0.0351,-0.0218,-0.0154,-0.0074,-0.0084,-0.0048,0.0001,-0.0035,0.0019,0.0023,0.0027,0.0085,0.0095,-0.0021,-0.002,-0.002,-0.0019,0,-0.0636,-0.065,-0.0651,-0.0641,-0.0616,-0.0613,-0.0553,-0.053,-0.0491,-0.0441,-0.0374,-0.0287,-0.0205,-0.0178,-0.0129,-0.0065,-0.0041,-0.0006,0.0034,0.0023,0.0084,0.0097,-0.0027,-0.0025,-0.0024,-0.0023,0,0,-0.0711,-0.0683,-0.069,-0.0694,-0.0658,-0.0643,-0.0618,-0.0568,-0.054,-0.0483,-0.0433,-0.0339,-0.0289,-0.0234,-0.0162,-0.0093,-0.003,-0.0047,-0.0041,0.0001,0.0133,0.0165,0.0183,0.0014,0.0016,0.0018,0.0157,0,-0.0762,-0.0795,-0.0759,-0.0779,-0.0783,-0.0721,-0.0699,-0.0648,-0.0585,-0.0525,-0.0421,-0.0352,-0.0307,-0.0267,-0.0193,-0.0063,0.0001,-0.0072,0.0145,0.0151,0.0176,0.0198,0.0158,0.028,0.0169,0.0172,0.0173,0,-0.0814,-0.083,-0.0863,-0.0845,-0.0839,-0.0844,-0.0792,-0.0761,-0.0654,-0.06,-0.0512,-0.0421,-0.0308,-0.0271,-0.0067,-0.0117,-0.0009,0.0086,0.0095,0.0169,0.0208,0.028,0.0308,0.0195,0.0193,0.0192,0.019,0,-0.0896,-0.0902,-0.0934,-0.0931,-0.09,-0.0903,-0.0883,-0.0797,-0.0753,-0.0645,-0.0595,-0.0452,-0.0365,-0.0217,-0.0029,-0.0042,0.0197,0.0212,0.0341,0.0344,0.0376,0.0379,0.0351,0.0351,0.035,0.035,0.035,0,-0.0975,-0.0999,-0.098,-0.1007,-0.103,-0.0981,-0.0976,-0.0928,-0.0835,-0.0773,-0.0646,-0.0554,-0.0346,-0.018,-0.003,0.0197,0.0202,0.0343,0.0392,0.0341,0.0338,0.032,0.0315,0.0355,0.0354,0.0353,0.0352,0,-0.1063,-0.1051,-0.1086,-0.1079,-0.1075,-0.1098,-0.1052,-0.1028,-0.094,-0.0852,-0.0817,-0.0613,-0.0395,-0.0185,0.0082,0.0207,0.0412,0.0488,0.0399,0.0435,0.0499,0.0487,0.0646,0.0649,0.0651,0.0653,0.0654,0,-0.1111,-0.114,-0.1155,-0.1169,-0.1175,-0.1183,-0.1174,-0.1099,-0.1051,-0.0875,-0.0828,-0.0605,-0.0419,-0.0032,0.0219,0.049,0.0487,0.0609,0.0583,0.0503,0.0534,0.0519,0.0505,0.0583,0.0583,0.0584,0.0585,0,-0.119,-0.1195,-0.1217,-0.1255,-0.1269,-0.1265,-0.1246,-0.122,-0.1099,-0.0997,-0.0812,-0.0653,-0.0288,0.0019,0.0355,0.0506,0.0559,0.0632,0.0607,0.0507,0.0454,0.048,0.0467,0.059,0.059,0.0589,0.0589,0.0589,-0.123,-0.1264,-0.1284,-0.1315,-0.1329,-0.1324,-0.1308,-0.1235,-0.1142,-0.0934,-0.0801,-0.0508,-0.0257,0.0254,0.0453,0.0646,0.0653,0.0707,0.0701,0.0695,0.0656,0.0609,0.0766,0.0767,0.0767,0.0767,0.0768,0,-0.1254,-0.1285,-0.1328,-0.1356,-0.1371,-0.1368,-0.1319,-0.1239,-0.1104,-0.0889,-0.0674,-0.033,-0.0008,0.0251,0.0557,0.073,0.0695,0.0753,0.0667,0.0661,0.0656,0.0611,0.0712,0.0712,0.0712,0.0712,0,0,-0.126,-0.13,-0.1324,-0.136,-0.1382,-0.1356,-0.1318,-0.1168,-0.0986,-0.0728,-0.0497,-0.0231,0.0055,0.0262,0.0448,0.0592,0.0583,0.0603,0.0632,0.0502,0.0495,0.0618,0.0541,0,0,0,0,0]}],[{"header":{"parameterUnit":"m.s-1","parameterCategory":2,"la1":30.2991,"la2":30.254,"lo1":-89.0895,"lo2":-89.0444,"dy":0.0017,"dx":0.0017,"nx":28,"ny":28,"refTime":"2025-01-01T03:00:00:Z","depth":"4","parameterNumber":2,"parameterNumberName":"U-component_of_CURRENTS"},"data":[0,0,0,0,0,0,0,0,0,0,0,0,0,0,0,0,0,0,0,0,0,0,0,0,0,0,0,0,0,0,0,0,0,0,0,0,0,0,0,0,0,0,0,0,0,0,0,0,0,0,0,0,0,0,0,0,0,0,-0.1808,-0.1809,0,-0.1884,-0.1884,-0.1885,-0.1937,-0.1937,-0.1938,-0.1938,-0.2027,-0.2029,-0.203,0,0,0,0,0,0,0,0,0,0,0,0,0,-0.1683,-0.1686,-0.1808,-0.1809,-0.181,-0.1883,-0.1884,-0.1885,-0.1937,-0.1937,-0.1938,-0.1938,-0.2026,-0.2028,-0.2031,0,0,0,0,0,0,0,0,0,0,0,0,0,-0.1746,-0.1686,-0.1808,-0.1844,-0.1848,-0.1883,-0.1884,-0.1886,-0.1937,-0.1937,-0.1938,-0.1938,-0.2025,-0.2028,-0.2031,-0.2038,0,0,-0.204,-0.2041,0,0,0,0,0,0,0,0,-0.1742,-0.175,-0.1838,-0.1842,-0.1846,-0.1902,-0.1873,-0.1937,-0.1937,-0.1903,-0.1938,-0.1939,-0.1986,-0.1992,-0.2004,-0.2042,-0.2046,-0.204,-0.2042,-0.2044,-0.2044,0,0,0,0,0,0,0,-0.1738,-0.1747,-0.1838,-0.1839,-0.1844,-0.1849,-0.1858,-0.1885,-0.194,-0.1906,-0.191,-0.1918,-0.1988,-0.2001,-0.2007,-0.2047,-0.204,-0.2043,-0.2045,-0.2046,-0.2189,-0.2191,0,0,0,0,0,0,-0.173,-0.1744,-0.1835,-0.184,-0.1795,-0.1851,-0.1861,-0.1883,-0.194,-0.1949,-0.1918,-0.1921,-0.1996,-0.2003,-0.201,-0.2105,-0.2043,-0.2046,-0.2048,-0.2187,-0.219,-0.2192,0,0,0,0,0,0,-0.1727,-0.1738,-0.1832,-0.1792,-0.1805,-0.1852,-0.1876,-0.1884,-0.193,-0.1949,-0.1958,-0.1958,-0.1997,-0.2006,-0.2065,-0.2105,-0.2048,-0.205,-0.2185,-0.2188,-0.2191,-0.2241,0,0,0,0,0,0,-0.1724,-0.1737,-0.1765,-0.1793,-0.1807,-0.1874,-0.1876,-0.1885,-0.1932,-0.1937,-0.1986,-0.1993,-0.1998,-0.2061,-0.2068,-0.2109,-0.2053,-0.2182,-0.2186,-0.219,-0.2237,-0.2245,-0.2252,0,0,0,0,0,-0.1719,-0.1747,-0.1766,-0.1778,-0.1839,-0.1875,-0.1883,-0.1917,-0.1934,-0.196,-0.1996,-0.1993,-0.209,-0.2065,-0.2073,-0.2115,-0.2181,-0.2185,-0.219,-0.2233,-0.2243,-0.2252,0,0,0,0,0,0,-0.1709,-0.1755,-0.1777,-0.182,-0.1856,-0.1884,-0.1913,-0.1936,-0.1985,-0.2001,-0.2017,-0.2027,-0.2092,-0.21,-0.2072,-0.2169,-0.2136,-0.2142,-0.2166,-0.2176,-0.2184,-0.2176,-0.2055,0,0,0,0,0,-0.1719,-0.1755,-0.1795,-0.1832,-0.1853,-0.1891,-0.1916,-0.1942,-0.198,-0.2004,-0.2038,-0.2077,-0.2112,-0.2141,-0.2171,-0.2225,-0.2201,-0.2259,-0.2267,-0.2274,-0.2275,-0.2279,-0.2286,-0.2207,-0.2207,-0.2207,0,0,-0.1727,-0.1756,-0.178,-0.1833,-0.1865,-0.1906,-0.1909,-0.1958,-0.2001,-0.2005,-0.2083,-0.2107,-0.2133,-0.2192,-0.2223,-0.2208,-0.2282,-0.2279,-0.2285,-0.2282,-0.2284,-0.2292,-0.2298,-0.221,-0.2209,-0.2209,0,0,-0.1747,-0.1788,-0.1824,-0.1859,-0.1913,-0.1935,-0.1957,-0.201,-0.2045,-0.2112,-0.2127,-0.2176,-0.2237,-0.2262,-0.228,-0.2351,-0.232,-0.237,-0.241,-0.2414,-0.242,-0.2425,-0.2386,-0.2387,-0.2378,-0.2378,-0.2378,0,-0.1761,-0.1809,-0.1839,-0.188,-0.1916,-0.1953,-0.2,-0.2039,-0.2108,-0.2141,-0.2147,-0.2243,-0.2267,-0.233,-0.2358,-0.2368,-0.235,-0.2368,-0.2422,-0.2426,-0.2431,-0.2389,-0.239,-0.2381,-0.2381,-0.238,-0.238,0,-0.1796,-0.1851,-0.1874,-0.1941,-0.1982,-0.2028,-0.208,-0.2134,-0.2178,-0.2213,-0.2292,-0.2323,-0.2378,-0.2398,-0.2402,-0.2457,-0.2425,-0.2425,-0.239,-0.2441,-0.2395,-0.2394,-0.2385,-0.2384,-0.2383,-0.2383,0,0,-0.1781,-0.1883,-0.1895,-0.1938,-0.2021,-0.2052,-0.2131,-0.22,-0.225,-0.2315,-0.237,-0.2441,-0.2457,-0.2479,-0.2494,-0.2503,-0.2513,-0.2485,-0.2483,-0.2431,-0.2492,-0.2318,-0.23,-0.2523,-0.2524,-0.2525,-0.244,0,-0.1804,-0.1886,-0.1936,-0.2021,-0.2064,-0.2131,-0.2195,-0.2265,-0.232,-0.238,-0.242,-0.2478,-0.2488,-0.2518,-0.2535,-0.2522,-0.2518,-0.2534,-0.2463,-0.246,-0.2288,-0.2296,-0.2527,-0.2439,-0.2439,-0.2439,-0.2439,0,-0.1812,-0.1868,-0.1957,-0.206,-0.2088,-0.215,-0.225,-0.2314,-0.24,-0.2443,-0.2505,-0.2529,-0.2575,-0.2564,-0.2565,-0.2576,-0.2543,-0.2518,-0.2514,-0.2333,-0.2285,-0.2385,-0.2437,-0.2437,-0.2437,-0.2437,-0.2438,0,-0.1756,-0.1876,-0.1948,-0.1986,-0.211,-0.2171,-0.2239,-0.2337,-0.2387,-0.2481,-0.2509,-0.2572,-0.2587,-0.2584,-0.2548,-0.2564,-0.2506,-0.2518,-0.2322,-0.2308,-0.2469,-0.2465,-0.2502,-0.2502,-0.2503,-0.2503,-0.2503,0,-0.1731,-0.1794,-0.1936,-0.1972,-0.2061,-0.2154,-0.2245,-0.2324,-0.2413,-0.2438,-0.2536,-0.2533,-0.2594,-0.2568,-0.2544,-0.241,-0.2504,-0.2313,-0.2276,-0.249,-0.249,-0.2466,-0.2463,-0.25,-0.25,-0.2501,-0.2502,0,-0.1656,-0.1749,-0.1843,-0.199,-0.2039,-0.2103,-0.2241,-0.2278,-0.2388,-0.2416,-0.2442,-0.2505,-0.2457,-0.2472,-0.2436,-0.2365,-0.2285,-0.2215,-0.2409,-0.2388,-0.2084,-0.2085,-0.1984,-0.1977,-0.1971,-0.1966,-0.1962,0,-0.1629,-0.1671,-0.184,-0.1883,-0.1958,-0.2065,-0.2114,-0.2251,-0.227,-0.2354,-0.2327,-0.2336,-0.2347,-0.2144,-0.2199,-0.2119,-0.2102,-0.2052,-0.21,-0.2056,-0.2032,-0.2042,-0.2051,-0.1953,-0.1952,-0.195,-0.1949,0,-0.157,-0.1647,-0.1711,-0.1799,-0.1869,-0.1937,-0.2014,-0.2017,-0.2122,-0.2238,-0.2142,-0.2102,-0.2029,-0.1997,-0.1943,-0.1899,-0.2089,-0.1992,-0.2005,-0.2049,-0.2018,-0.2002,-0.2017,-0.1928,-0.1931,-0.1933,-0.1934,0,-0.1524,-0.1547,-0.1623,-0.1681,-0.1759,-0.1759,-0.1836,-0.1827,-0.1866,-0.1958,-0.1907,-0.1917,-0.1977,-0.1877,-0.1829,-0.1769,-0.1753,-0.1716,-0.1743,-0.1766,-0.1738,-0.1669,-0.1423,0,0,0,0,0,-0.1456,-0.1441,-0.1489,-0.1526,-0.1594,-0.163,-0.1727,-0.1794,-0.1892,-0.1763,-0.1833,-0.1752,-0.1669,-0.169,-0.1579,-0.1743,-0.1774,-0.1611,-0.175,-0.1817,-0.184,-0.183,0,0,0,0,0,0,-0.139,-0.1427,-0.143,-0.137,-0.1362,-0.1405,-0.1459,-0.1536,-0.1482,-0.1592,-0.1551,-0.1636,-0.1584,-0.1681,-0.1533,-0.154,-0.1591,-0.1639,-0.1634,-0.1804,-0.1825,-0.1844,-0.1841,0,0,0,0,0]},{"header":{"parameterUnit":"m.s-1","parameterCategory":2,"la1":30.2991,"la2":30.254,"lo1":-89.0895,"lo2":-89.0444,"dy":0.0017,"dx":0.0017,"nx":28,"ny":28,"refTime":"2025-01-01T03:00:00:Z","depth":"4","parameterNumber":3,"parameterNumberName":"V-component_of_CURRENTS"},"data":[0,0,0,0,0,0,0,0,0,0,0,0,0,0,0,0,0,0,0,0,0,0,0,0,0,0,0,0,0,0,0,0,0,0,0,0,0,0,0,0,0,0,0,0,0,0,0,0,0,0,0,0,0,0,0,0,0,0,-0.0155,-0.0154,0,-0.0081,-0.008,-0.0079,-0.0026,-0.0025,-0.0025,-0.0025,0.0091,0.0094,0.0097,0,0,0,0,0,0,0,0,0,0,0,0,0,-0.0171,-0.0171,-0.0155,-0.0154,-0.0154,-0.0082,-0.008,-0.0079,-0.0026,-0.0025,-0.0025,-0.0025,0.009,0.0093,0.0097,0,0,0,0,0,0,0,0,0,0,0,0,0,-0.0136,-0.0171,-0.0155,-0.012,-0.0116,-0.0082,-0.008,-0.0079,-0.0026,-0.0025,-0.0025,-0.0025,0.0089,0.0093,0.0097,0.0115,0,0,0.011,0.0112,0,0,0,0,0,0,0,0,-0.0138,-0.0135,-0.0126,-0.0122,-0.0118,-0.0064,-0.0043,-0.0013,-0.0026,-0.0058,-0.0025,-0.0024,0.0042,0.005,0.0065,0.012,0.0125,0.0111,0.0113,0.0115,0.0116,0,0,0,0,0,0,0,-0.014,-0.0137,-0.0124,-0.0125,-0.012,-0.008,-0.0076,-0.0037,-0.0009,-0.0055,-0.0052,-0.0047,0.0044,0.006,0.0068,0.0127,0.0111,0.0114,0.0117,0.0119,0.0208,0.0208,0,0,0,0,0,0,-0.0158,-0.014,-0.0126,-0.0122,-0.0129,-0.0081,-0.0075,-0.008,-0.001,-0.0,-0.0047,-0.0044,0.0053,0.0063,0.0072,0.0097,0.0115,0.0119,0.0121,0.0209,0.0208,0.0208,0,0,0,0,0,0,-0.0159,-0.0158,-0.0129,-0.013,-0.0124,-0.0082,-0.0087,-0.0079,-0.0063,-0.0005,0.0006,-0.004,0.0054,0.0066,0.01,0.0102,0.0121,0.0125,0.0209,0.0208,0.0208,0.0146,0,0,0,0,0,0,-0.016,-0.0159,-0.017,-0.0132,-0.0125,-0.0116,-0.0088,-0.0078,-0.0061,-0.0057,0.0005,0.0016,0.0055,0.0094,0.0104,0.0108,0.0128,0.0209,0.0209,0.0208,0.0148,0.0143,0.0139,0,0,0,0,0,-0.0161,-0.0176,-0.0171,-0.0169,-0.0141,-0.0117,-0.0109,-0.0076,-0.0062,-0.0059,-0.0019,0.0014,0.01,0.0097,0.011,0.0114,0.0209,0.0209,0.0208,0.015,0.0144,0.014,0,0,0,0,0,0,-0.0184,-0.0171,-0.0165,-0.0175,-0.0153,-0.0108,-0.0104,-0.0081,-0.0048,-0.0044,0.0012,0.0026,0.0056,0.0092,0.0087,0.0139,0.016,0.0162,0.0111,0.0107,0.0103,0.0094,0.0132,0,0,0,0,0,-0.0199,-0.021,-0.0183,-0.0193,-0.0184,-0.0146,-0.0133,-0.0112,-0.0077,-0.0062,-0.0021,0.0024,0.0065,0.0089,0.0127,0.0156,0.0195,0.0167,0.0163,0.0159,0.0161,0.0217,0.0218,0.0207,0.0207,0.0207,0,0,-0.0211,-0.0206,-0.0212,-0.0199,-0.0179,-0.0174,-0.0137,-0.0123,-0.0114,-0.0054,-0.0033,0.0009,0.0068,0.0098,0.0115,0.0129,0.0181,0.0159,0.0155,0.0159,0.0217,0.0218,0.0219,0.0207,0.0207,0.0207,0,0,-0.024,-0.0237,-0.0255,-0.0242,-0.0223,-0.0197,-0.0197,-0.016,-0.0139,-0.0114,-0.0069,-0.0028,0.0029,0.0074,0.0105,0.0101,0.0153,0.0111,0.0089,0.0142,0.0144,0.0146,0.0187,0.0193,0.0113,0.0113,0.0112,0,-0.0259,-0.0277,-0.0253,-0.0263,-0.0258,-0.0213,-0.0222,-0.0193,-0.015,-0.0132,-0.0117,-0.0026,0.0021,0.0072,0.007,0.0093,0.0125,0.0101,0.0137,0.0139,0.0142,0.0184,0.0192,0.0109,0.011,0.011,0.011,0,-0.0294,-0.031,-0.0316,-0.0318,-0.0306,-0.0307,-0.0269,-0.0253,-0.0222,-0.0188,-0.0139,-0.0072,-0.0018,0.0005,0.0039,0.0083,0.0099,0.012,0.0147,0.014,0.0184,0.0193,0.0105,0.0106,0.0107,0.0108,0,0,-0.0336,-0.0344,-0.0348,-0.0361,-0.0338,-0.0333,-0.0318,-0.0288,-0.0276,-0.0222,-0.0195,-0.0119,-0.0081,-0.0044,0.0008,0.0062,0.0109,0.0094,0.0098,0.013,0.0219,0.0198,0.0206,0.0134,0.0136,0.0137,0.0238,0,-0.0374,-0.0413,-0.0399,-0.0426,-0.0439,-0.04,-0.0391,-0.0356,-0.0311,-0.0273,-0.0189,-0.0145,-0.0099,-0.0074,-0.0014,0.008,0.0131,0.0079,0.0226,0.023,0.021,0.0216,0.0141,0.0244,0.0247,0.0248,0.0249,0,-0.0414,-0.0435,-0.0477,-0.0487,-0.0488,-0.0496,-0.0472,-0.0457,-0.0386,-0.035,-0.0285,-0.0216,-0.0128,-0.0091,0.0065,0.0028,0.0113,0.0189,0.0195,0.0205,0.0227,0.0259,0.0266,0.0265,0.0263,0.0262,0.0261,0,-0.0459,-0.0488,-0.0527,-0.0532,-0.0533,-0.0543,-0.0538,-0.0487,-0.0471,-0.0399,-0.0371,-0.026,-0.0196,-0.0077,0.0077,0.0071,0.0252,0.0264,0.0328,0.0327,0.0343,0.0341,0.0371,0.0371,0.0371,0.0371,0.037,0,-0.0502,-0.0537,-0.0558,-0.0582,-0.0628,-0.0601,-0.0624,-0.0599,-0.0547,-0.0518,-0.0422,-0.036,-0.0187,-0.0059,0.0066,0.0222,0.0244,0.0326,0.0354,0.0313,0.0306,0.0349,0.0345,0.0374,0.0374,0.0373,0.0372,0,-0.0551,-0.0564,-0.0621,-0.0645,-0.0657,-0.0694,-0.0701,-0.0698,-0.0647,-0.0603,-0.0581,-0.0425,-0.0258,-0.0088,0.0126,0.0208,0.0359,0.0409,0.0346,0.0369,0.0399,0.039,0.0481,0.0481,0.0481,0.0481,0.0481,0,-0.058,-0.0615,-0.0681,-0.0719,-0.074,-0.0781,-0.0797,-0.0763,-0.074,-0.0629,-0.0596,-0.0434,-0.0317,-0.0028,0.0136,0.0358,0.0389,0.0451,0.0428,0.0393,0.0412,0.0403,0.0395,0.0481,0.0481,0.0481,0.0481,0,-0.0638,-0.0671,-0.0715,-0.0788,-0.0832,-0.0868,-0.0877,-0.0862,-0.0789,-0.0754,-0.0582,-0.0421,-0.0232,-0.0016,0.0154,0.0314,0.0399,0.0453,0.0453,0.0433,0.0395,0.0411,0.0403,0.0482,0.0482,0.0482,0.0482,0,-0.0685,-0.0734,-0.0785,-0.0843,-0.0902,-0.0911,-0.0919,-0.0852,-0.0815,-0.0671,-0.0613,-0.0401,-0.0268,-0.0036,0.0124,0.027,0.0302,0.0336,0.0343,0.0344,0.0267,0.0196,0.025,0,0,0,0,0,-0.0715,-0.0758,-0.0823,-0.0878,-0.0931,-0.0947,-0.0939,-0.0919,-0.0847,-0.0729,-0.066,-0.0475,-0.0206,-0.0082,0.0063,0.0098,0.0298,0.0267,0.0334,0.0485,0.0484,0.0414,0,0,0,0,0,0,-0.0732,-0.0806,-0.0824,-0.0878,-0.0911,-0.0948,-0.0939,-0.0892,-0.0803,-0.0715,-0.0562,-0.0469,-0.0206,-0.0291,0.0057,0.0101,0.0156,0.0396,0.0399,0.0485,0.0485,0.0484,0.0412,0,0,0,0,0]}]]